Location: Asheville, NC
(35.6000°N, 82.5500°W)
Time: 11:46:00
(UTC-04:00)

STRAND 1 - Pass Details

Date: 03 January 2018
Orbit: 769 x 781 km, 98.5° (Epoch: 22 June)

Event Time Altitude Azimuth Distance (km) Brightness Sun altitude
Exits shadow 20:49:53 12° 222° (SW) 2,207 ? -39.9°
Drops below altitude 10° 20:50:10 10° 221° (SW) 2,313 ? -40.0°
Sets 20:52:35 0° 213° (SSW) 3,238 ? -40.4°
